TimeEDT,TemperatureF,Dew PointF,Humidity,Sea Level PressureIn,VisibilityMPH,Wind Direction,Wind SpeedMPH,Gust SpeedMPH,PrecipitationIn,Events,Conditions,WindDirDegrees,DateUTC
12:15 AM,45.5,44.6,97,30.00,7.0,NW,9.2,-,0.04,Rain,Rain,310,2012-10-06 04:15:00
12:55 AM,45.1,44.2,97,29.99,7.0,NW,6.9,-,0.09,Rain,Light Rain,320,2012-10-06 04:55:00
1:15 AM,45.0,44.1,97,29.99,5.0,NW,13.8,19.6,0.05,Rain,Heavy Rain,310,2012-10-06 05:15:00
1:35 AM,44.2,43.2,96,30.01,5.0,WNW,5.8,-,0.12,Rain,Heavy Rain,300,2012-10-06 05:35:00
1:55 AM,44.1,43.2,97,30.00,7.0,NW,5.8,-,0.17,Rain,Light Rain,310,2012-10-06 05:55:00
2:15 AM,43.9,43.3,98,30.01,5.0,NW,9.2,-,0.05,Rain,Heavy Rain,310,2012-10-06 06:15:00
2:35 AM,43.2,42.6,98,30.00,5.0,WNW,11.5,17.3,0.12,Rain,Heavy Rain,300,2012-10-06 06:35:00
2:55 AM,43.0,42.1,97,30.00,7.0,NW,10.4,17.3,0.17,Rain,Light Rain,310,2012-10-06 06:55:00
3:15 AM,43.0,41.9,96,30.01,10.0,WNW,6.9,-,N/A,,Overcast,300,2012-10-06 07:15:00
3:35 AM,42.8,41.5,95,30.01,10.0,WNW,8.1,-,N/A,,Overcast,300,2012-10-06 07:35:00
3:55 AM,42.8,41.4,95,30.01,10.0,WNW,6.9,-,N/A,,Overcast,290,2012-10-06 07:55:00
4:15 AM,43.0,41.7,95,30.01,10.0,WNW,6.9,-,N/A,,Overcast,290,2012-10-06 08:15:00
4:35 AM,43.2,41.5,94,30.02,10.0,WNW,6.9,-,N/A,,Overcast,290,2012-10-06 08:35:00
4:55 AM,43.2,41.9,95,30.02,10.0,West,6.9,-,N/A,,Overcast,280,2012-10-06 08:55:00
5:15 AM,43.2,41.0,92,30.02,10.0,WNW,6.9,-,N/A,,Overcast,290,2012-10-06 09:15:00
5:35 AM,42.8,40.3,91,30.03,10.0,West,6.9,-,N/A,,Overcast,270,2012-10-06 09:35:00
5:55 AM,42.1,39.4,90,30.03,10.0,West,8.1,-,N/A,,Scattered Clouds,270,2012-10-06 09:55:00
6:15 AM,41.0,38.5,91,30.04,10.0,West,5.8,-,N/A,,Clear,270,2012-10-06 10:15:00
6:35 AM,40.5,37.9,91,30.04,10.0,West,5.8,-,N/A,,Scattered Clouds,270,2012-10-06 10:35:00
6:55 AM,39.7,37.9,93,30.04,10.0,West,4.6,-,N/A,,Clear,260,2012-10-06 10:55:00
7:15 AM,39.2,37.6,94,30.05,10.0,West,4.6,-,N/A,,Clear,260,2012-10-06 11:15:00
7:21 AM,39.2,37.4,93,30.05,10.0,WSW,4.6,-,N/A,,Clear,250,2012-10-06 11:21:00
7:35 AM,38.7,37.4,95,30.06,10.0,WSW,5.8,-,N/A,,Clear,250,2012-10-06 11:35:00
7:50 AM,37.4,37.4,100,30.06,10.0,WSW,5.8,-,N/A,,Clear,250,2012-10-06 11:50:00
7:55 AM,38.3,37.4,97,30.07,10.0,WSW,4.6,-,N/A,,Clear,250,2012-10-06 11:55:00
8:15 AM,39.2,37.4,93,30.08,10.0,WSW,5.8,-,N/A,,Clear,250,2012-10-06 12:15:00
8:50 AM,41.0,37.4,87,30.09,10.0,West,5.8,-,N/A,,Clear,260,2012-10-06 12:50:00
10:50 AM,46.4,37.4,71,30.11,10.0,WNW,6.9,-,N/A,,Clear,290,2012-10-06 14:50:00
11:50 AM,50.0,37.4,62,30.11,10.0,WNW,17.3,-,N/A,,Clear,290,2012-10-06 15:50:00
12:47 PM,53.6,35.6,51,30.10,10.0,West,11.5,-,N/A,,Clear,270,2012-10-06 16:47:00
1:50 PM,53.6,33.8,47,30.08,10.0,West,11.5,-,N/A,,Clear,260,2012-10-06 17:50:00
2:50 PM,55.4,33.8,44,30.07,10.0,WNW,6.9,16.1,N/A,,Clear,300,2012-10-06 18:50:00
3:50 PM,55.4,30.2,38,30.05,10.0,WNW,10.4,-,N/A,,Clear,290,2012-10-06 19:50:00
4:55 PM,57.2,32.0,38,30.06,10.0,West,9.2,-,N/A,,Clear,270,2012-10-06 20:55:00
9:15 PM,48.0,34.3,59,30.13,10.0,NW,5.8,-,N/A,,Clear,310,2012-10-07 01:15:00
9:35 PM,47.8,34.9,61,30.13,10.0,NW,5.8,-,N/A,,Clear,310,2012-10-07 01:35:00
9:55 PM,47.7,34.9,61,30.13,10.0,NW,5.8,-,N/A,,Clear,310,2012-10-07 01:55:00
10:15 PM,47.3,34.9,62,30.12,10.0,NW,6.9,-,N/A,,Clear,320,2012-10-07 02:15:00
10:35 PM,47.3,34.9,62,30.13,10.0,NNW,11.5,16.1,N/A,,Clear,340,2012-10-07 02:35:00
10:55 PM,46.8,35.6,65,30.13,10.0,North,9.2,-,N/A,,Clear,350,2012-10-07 02:55:00
11:15 PM,46.4,35.6,66,30.13,10.0,North,10.4,-,N/A,,Mostly Cloudy,350,2012-10-07 03:15:00
11:35 PM,46.0,33.4,61,30.13,10.0,NNW,8.1,-,N/A,,Scattered Clouds,340,2012-10-07 03:35:00
11:55 PM,45.9,32.9,61,30.14,10.0,NNW,9.2,-,N/A,,Scattered Clouds,340,2012-10-07 03:55:00